This demonstration page uses our WeatherBlox Daily Observations layout. Learn more.

Left ArrowRight Arrow

Hourly Observations for May 24, 2020

Temp ( °F °C ) Dew Point ( °F °C ) Humidity (%) Winds ( mph kmh ) Pressure ( in mb ) Visibility ( mi km ) Precip ( " mm )
12:53 am 00:53 Clear 63 17.2 45 7.2 52 52 Calm 29.93 1013 10 16 0.00 0.00
1:53 am 01:53 Clear 64 17.8 37 2.8 37 37 NNW 7 11 29.93 1014 10 16 0.00 0.00
2:53 am 02:53 Clear 67 19.4 35 1.7 31 31 N 8 13 29.93 1013 10 16 0.00 0.00
3:53 am 03:53 Clear 65 18.3 36 2.2 34 34 NNW 7 11 29.94 1014 10 16 0.00 0.00
4:53 am 04:53 Clear 64 17.8 35 1.7 34 34 NNW 8 13 29.95 1014 10 16 0.00 0.00
5:53 am 05:53 Sunny 64 17.8 35 1.7 34 34 NNW 8 13 29.96 1014 10 16 0.00 0.00
6:53 am 06:53 Sunny 66 18.9 35 1.7 32 32 NNW 8 13 29.98 1015 10 16 0.00 0.00
7:53 am 07:53 Sunny 70 21.1 40 4.4 34 34 VRB 6 9 29.99 1016 10 16 0.00 0.00
8:53 am 08:53 Sunny 74 23.3 38 3.3 27 27 N 7 11 29.99 1016 10 16 0.00 0.00
9:53 am 09:53 Sunny 78 25.6 40 4.4 26 26 N 12 19 29.98 1015 10 16 0.00 0.00
10:53 am 10:53 Sunny 80 26.7 40 4.4 24 24 N 13 20 29.98 1015 10 16 0.00 0.00
11:53 am 11:53 Sunny 83 28.3 42 5.6 24 24 NNW 7 11 29.96 1015 10 16 0.00 0.00
12:53 pm 12:53 Sunny 86 30 43 6.1 22 22 NNW 8 13 29.94 1014 10 16 0.00 0.00
1:53 pm 13:53 Sunny 89 31.7 42 5.6 19 19 VRB 7 11 29.92 1013 10 16 0.00 0.00
2:53 pm 14:53 Sunny 89 31.7 37 2.8 16 16 N 5 7 29.89 1012 10 16 0.00 0.00
3:53 pm 15:53 Sunny 90 32.2 38 3.3 16 16 NNW 6 9 29.88 1012 10 16 0.00 0.00
4:53 pm 16:53 Sunny 90 32.2 40 4.4 17 17 W 6 9 29.86 1011 10 16 0.00 0.00
5:53 pm 17:53 Sunny 88 31.1 48 8.9 25 25 W 3 6 29.85 1011 10 16 0.00 0.00
6:53 pm 18:53 Sunny 89 31.7 50 10 26 26 NW 3 6 29.84 1011 10 16 0.00 0.00
7:53 pm 19:53 Sunny 86 30 51 10.6 30 30 N 3 6 29.84 1011 10 16 0.00 0.00
8:53 pm 20:53 Clear 82 27.8 50 10 33 33 N 6 9 29.85 1011 10 16 0.00 0.00
9:53 pm 21:53 Clear 75 23.9 54 12.2 48 48 N 3 6 29.87 1011 10 16 0.00 0.00
10:53 pm 22:53 Clear 72 22.2 53 11.7 52 52 NW 3 6 29.88 1012 10 16 0.00 0.00
11:53 pm 23:53 Clear 71 21.7 52 11.1 51 51 NW 5 7 29.89 1012 10 16 0.00 0.00

Powered by AerisWeather